This demonstration page uses our WeatherBlox Daily Observations layout. Learn more.

Left ArrowRight Arrow

Hourly Observations for November 27, 2018

Temp ( °F °C ) Dew Point ( °F °C ) Humidity (%) Winds ( mph kmh ) Pressure ( in mb ) Visibility ( mi km ) Precip ( " mm )
12:57 am 00:57 Cloudy 25 -3.9 21 -6.1 85 85 E 7 11 30.22 1023 10 16 0.00 0.00
1:57 am 01:57 Cloudy 23 -5 21 -6.1 92 92 ENE 7 11 30.21 1023 10 16 0.00 0.00
2:57 am 02:57 Cloudy 23 -5 20 -6.7 88 88 E 7 11 30.22 1023 10 16 0.00 0.00
3:29 am 03:29 Cloudy 23 -5 19 -7 86 86 ESE 6 9 30.30 1026 10 16 0.00 0.00
3:57 am 03:57 Cloudy 23 -5 20 -6.7 88 88 E 7 11 30.21 1023 10 16 0.00 0.00
4:39 am 04:39 Cloudy 23 -5 19 -7 86 86 E 6 9 30.30 1026 10 16 0.00 0.00
4:55 am 04:55 Cloudy 21 -6 19 -7 93 93 E 7 11 30.30 1026 10 16 0.00 0.00
4:57 am 04:57 Cloudy 22 -5.6 20 -6.7 92 92 E 6 9 30.22 1023 10 16 0.00 0.00
5:15 am 05:15 Cloudy 21 -6 19 -7 93 93 E 7 11 30.30 1026 10 16 0.00 0.00
5:57 am 05:57 Cloudy 23 -5 20 -6.7 88 88 SSE 6 9 30.22 1023 10 16 0.00 0.00
6:57 am 06:57 Cloudy 23 -5 20 -6.7 88 88 SE 6 9 30.22 1024 10 16 0.00 0.00
7:57 am 07:57 Cloudy 23 -5 20 -6.7 88 88 SE 7 11 30.23 1024 10 16 0.00 0.00
8:57 am 08:57 Cloudy 23 -5 20 -6.7 88 88 SE 7 11 30.22 1023 10 16 0.00 0.00
9:57 am 09:57 Cloudy 24 -4.4 21 -6.1 88 88 SSE 9 15 30.22 1023 10 16 0.00 0.00
10:09 am 10:09 Cloudy 25 -4 21 -6 86 86 SSE 8 13 30.30 1026 10 16 0.00 0.00
10:57 am 10:57 Cloudy 24 -4.4 21 -6.1 88 88 SSE 10 17 30.20 1023 10 16 0.00 0.00
11:06 am 11:06 Cloudy 25 -4 21 -6 86 86 S 10 17 30.24 1024 10 16 0.00 0.00
11:57 am 11:57 Cloudy 26 -3.3 23 -5 88 88 S 9 15 30.17 1022 10 16 0.00 0.00
12:57 pm 12:57 Cloudy 27 -2.8 24 -4.4 89 89 S 12 19 30.13 1020 10 16 0.00 0.00
1:57 pm 13:57 Cloudy 28 -2.2 25 -3.9 88 88 SSW 15 24 30.10 1019 10 16 0.00 0.00
2:57 pm 14:57 Cloudy 28 -2.2 25 -3.9 88 88 SSW 16 26 30.06 1018 10 16 0.00 0.00
3:57 pm 15:57 Cloudy 28 -2.2 25 -3.9 88 88 SSW 16 26 30.05 1018 10 16 0.00 0.00
4:57 pm 16:57 Cloudy 27 -2.8 25 -3.9 92 92 SSW 14 22 30.03 1017 10 16 0.00 0.00
5:57 pm 17:57 Cloudy 27 -2.8 25 -3.9 92 92 SSW 15 24 30.02 1017 10 16 0.00 0.00
6:57 pm 18:57 Cloudy 27 -2.8 25 -3.9 92 92 S 15 24 30.01 1016 9 14 0.00 0.00
7:57 pm 19:57 Cloudy 26 -3.3 25 -3.9 96 96 S 15 24 29.99 1016 7 11 0.00 0.00
8:07 pm 20:07 Cloudy with Mist and Fog 27 -3 25 -4 93 93 S 16 26 30.03 1017 6 10 0.00 0.00
8:57 pm 20:57 Cloudy with Mist and Fog 26 -3.3 25 -3.9 96 96 S 15 24 29.97 1015 5 8 0.00 0.00
9:57 pm 21:57 Cloudy with Mist and Fog 26 -3.3 25 -3.9 96 96 S 17 28 29.96 1015 4 6 0.00 0.00
10:57 pm 22:57 Cloudy with Mist and Fog 27 -2.8 26 -3.3 96 96 S 12 19 29.95 1014 4 6 0.00 0.00
11:57 pm 23:57 Cloudy 27 -2.8 27 -2.8 100 100 S 13 20 29.93 1013 8 13 0.00 0.00

Powered by AerisWeather